CW0506 Weather Reports


Display with metric or nautical units.
time (UTC)temp
F
wind
direction
speed
MPH
gust
MPH
rain 1hr
in
rain 24hr
in
rain mn
in
humidity
%
barometer
mb
20260508191746 56 113 3.0 8.0 0.00 0.00 0.00 58 1012.1
20260508191243 56 291 1.0 4.0 0.00 0.00 0.00 58 1012.1
20260508190740 56 116 2.0 6.0 0.00 0.00 0.00 56 1011.9
20260508190236 57 101 1.0 7.0 0.00 0.00 0.00 55 1011.8
20260508185733 57 178 0.0 5.0 0.00 0.00 0.00 55 1011.9
20260508185230 58 327 0.0 7.0 0.00 0.00 0.00 53 1011.7
20260508184727 60 258 3.0 12.0 0.00 0.00 0.00 53 1011.9
20260508184224 57 40 6.0 11.0 0.00 0.00 0.00 52 1011.8
20260508183721 56 98 3.0 8.0 0.00 0.00 0.00 53 1012.0
20260508183217 59 47 5.0 7.0 0.00 0.00 0.00 52 1012.0
20260508182713 59 320 4.0 13.0 0.00 0.00 0.00 50 1012.2
20260508182210 57 129 2.0 9.0 0.00 0.00 0.00 57 1012.0
20260508181706 56 264 3.0 9.0 0.00 0.00 0.00 53 1012.0
20260508181203 57 117 2.0 8.0 0.00 0.00 0.00 56 1012.0
20260508180700 57 21 2.0 6.0 0.00 0.00 0.00 55 1011.9
20260508180157 55 281 7.0 9.0 0.00 0.00 0.00 57 1012.2
20260508175653 55 257 9.0 16.0 0.00 0.00 0.00 59 1012.3
20260508175150 55 52 3.0 7.0 0.00 0.00 0.00 59 1012.3
20260508174648 53 237 4.0 9.0 0.00 0.00 0.00 59 1012.3
20260508174144 54 270 3.0 9.0 0.00 0.00 0.00 58 1012.4
20260508173641 55 159 2.0 12.0 0.00 0.00 0.00 55 1012.3
20260508173137 55 62 3.0 6.0 0.00 0.00 0.00 58 1012.2
20260508172635 55 111 2.0 8.0 0.00 0.00 0.00 60 1012.3
20260508172131 54 299 2.0 10.0 0.00 0.00 0.00 59 1012.2
20260508171628 54 46 5.0 12.0 0.00 0.00 0.00 59 1012.1
20260508171124 55 161 4.0 14.0 0.00 0.00 0.00 57 1012.0
20260508170621 55 1 2.0 6.0 0.00 0.00 0.00 52 1011.9
20260508170119 57 286 2.0 15.0 0.00 0.00 0.00 52 1011.8
20260508165616 57 27 5.0 10.0 0.00 0.00 0.00 47 1011.3
20260508165113 58 270 6.0 9.0 0.00 0.00 0.00 46 1011.4
20260508164609 58 317 5.0 8.0 0.00 0.00 0.00 45 1011.2
20260508164106 59 329 4.0 11.0 0.00 0.00 0.00 45 1011.4
20260508163603 59 272 5.0 10.0 0.00 0.00 0.00 44 1011.3
20260508163100 58 9 4.0 7.0 0.00 0.00 0.00 42 1011.4
20260508162557 58 5 3.0 8.0 0.00 0.00 0.00 43 1011.2
20260508162054 58 254 5.0 10.0 0.00 0.00 0.00 44 1011.4
20260508161551 58 277 2.0 10.0 0.00 0.00 0.00 46 1011.4
20260508161048 59 30 5.0 8.0 0.00 0.00 0.00 45 1011.6
20260508160546 58 25 14.0 14.0 0.00 0.00 0.00 42 1011.7
20260508160043 58 280 5.0 10.0 0.00 0.00 0.00 43 1011.9
20260508155540 59 310 2.0 7.0 0.00 0.00 0.00 44 1011.9
20260508155037 58 211 3.0 5.0 0.00 0.00 0.00 50 1011.8
20260508154534 56 308 5.0 13.0 0.00 0.00 0.00 47 1011.9
20260508154031 59 256 4.0 10.0 0.00 0.00 0.00 47 1011.8
20260508153528 59 35 2.0 5.0 0.00 0.00 0.00 50 1012.1
20260508153024 60 220 3.0 8.0 0.00 0.00 0.00 46 1012.1
20260508152521 58 315 2.0 5.0 0.00 0.00 0.00 50 1011.9
20260508152017 57 59 4.0 8.0 0.00 0.00 0.00 52 1012.0
20260508151514 56 315 2.0 7.0 0.00 0.00 0.00 49 1012.0
20260508151010 57 309 6.0 11.0 0.00 0.00 0.00 47 1012.2
20260508150508 55 309 2.0 5.0 0.00 0.00 0.00 52 1012.0
20260508150004 57 98 5.0 10.0 0.00 0.00 0.00 47 1012.1
20260508145500 56 15 2.0 8.0 0.00 0.00 0.00 51 1012.2
20260508144956 56 224 4.0 9.0 0.00 0.00 0.00 49 1012.2
20260508144454 56 247 5.0 10.0 0.00 0.00 0.00 51 1012.4
20260508143951 55 4 0.0 10.0 0.00 0.00 0.00 54 1012.5
20260508143449 55 213 6.0 8.0 0.00 0.00 0.00 54 1012.3
20260508142945 55 313 4.0 13.0 0.00 0.00 0.00 55 1012.3
20260508142442 55 259 2.0 8.0 0.00 0.00 0.00 53 1012.3
20260508141938 55 239 1.0 7.0 0.00 0.00 0.00 51 1012.3
20260508141435 55 29 2.0 6.0 0.00 0.00 0.00 51 1012.3
20260508140933 54 301 3.0 6.0 0.00 0.00 0.00 54 1012.5
20260508140430 54 60 2.0 4.0 0.00 0.00 0.00 56 1012.4
20260508135925 55 89 3.0 4.0 0.00 0.00 0.00 55 1012.6
20260508135422 54 106 1.0 9.0 0.00 0.00 0.00 54 1012.4
20260508134919 54 217 2.0 9.0 0.00 0.00 0.00 55 1012.6
20260508134415 53 309 0.0 6.0 0.00 0.00 0.00 56 1012.6
20260508133912 52 185 2.0 7.0 0.00 0.00 0.00 60 1012.9
20260508133410 52 193 3.0 5.0 0.00 0.00 0.00 56 1013.0
20260508132907 52 65 5.0 6.0 0.00 0.00 0.00 54 1013.1
20260508132405 53 163 2.0 7.0 0.00 0.00 0.00 55 1013.0
20260508131901 52 157 2.0 14.0 0.00 0.00 0.00 54 1013.0
20260508131356 53 241 2.0 5.0 0.00 0.00 0.00 56 1012.8
20260508130854 53 169 4.0 6.0 0.00 0.00 0.00 56 1012.8
20260508130350 54 164 4.0 6.0 0.00 0.00 0.00 54 1012.8
20260508125846 54 108 1.0 5.0 0.00 0.00 0.00 56 1012.9
20260508125342 54 29 1.0 6.0 0.00 0.00 0.00 55 1012.8
20260508124840 53 296 2.0 6.0 0.00 0.00 0.00 60 1012.8
20260508124338 53 192 1.0 3.0 0.00 0.00 0.00 59 1013.1
20260508123836 52 184 3.0 7.0 0.00 0.00 0.00 61 1012.8
20260508123334 51 163 3.0 7.0 0.00 0.00 0.00 64 1012.9
20260508122830 51 187 3.0 3.0 0.00 0.00 0.00 64 1013.1
20260508122327 50 80 2.0 4.0 0.00 0.00 0.00 68 1013.1
20260508121824 50 69 0.0 4.0 0.00 0.00 0.00 67 1013.1
20260508121323 50 53 3.0 4.0 0.00 0.00 0.00 68 1013.1
20260508120820 49 44 2.0 3.0 0.00 0.00 0.00 71 1012.9
20260508120318 48 221 1.0 2.0 0.00 0.00 0.00 73 1013.1
20260508115815 47 229 2.0 2.0 0.00 0.00 0.00 77 1013.1
20260508115312 45 188 1.0 2.0 0.00 0.00 0.00 82 1013.1
20260508114809 43 229 0.0 2.0 0.00 0.00 0.00 86 1013.2
20260508114306 41 9 1.0 2.0 0.00 0.00 0.00 88 1012.9
20260508113802 41 277 0.0 2.0 0.00 0.00 0.00 89 1013.1
20260508113301 41 239 1.0 2.0 0.00 0.00 0.00 91 1013.1
20260508112756 41 225 1.0 2.0 0.00 0.00 0.00 93 1013.0
20260508112254 40 186 1.0 2.0 0.00 0.00 0.00 95 1013.2
20260508111749 39 189 0.0 2.0 0.00 0.00 0.00 96 1013.0
20260508111247 39 114 0.0 1.0 0.00 0.00 0.00 97 1012.8
20260508110744 38 160 0.0 2.0 0.00 0.00 0.00 97 1012.8
20260508110242 37 176 0.0 2.0 0.00 0.00 0.00 97 1012.9
20260508105736 37 165 2.0 2.0 0.00 0.00 0.00 97 1012.7
20260508105233 37 159 1.0 2.0 0.00 0.00 0.00 97 1012.8
20260508104730 37 242 1.0 2.0 0.00 0.00 0.00 97 1012.8
20260508104227 37 230 0.0 2.0 0.00 0.00 0.00 97 1012.8
20260508103724 37 224 0.0 2.0 0.00 0.00 0.00 97 1012.7
20260508103221 36 231 0.0 2.0 0.00 0.00 0.00 97 1012.8
20260508102718 36 230 0.0 3.0 0.00 0.00 0.00 97 1012.7
20260508102216 36 222 2.0 3.0 0.00 0.00 0.00 97 1012.5
20260508101713 36 250 0.0 2.0 0.00 0.00 0.00 97 1012.6
20260508101210 36 294 0.0 2.0 0.00 0.00 0.00 97 1012.4
20260508100707 36 216 0.0 2.0 0.00 0.00 0.00 97 1012.3
20260508100206 37 281 0.0 3.0 0.00 0.00 0.00 96 1012.1
20260508095656 37 12 0.0 2.0 0.00 0.00 0.00 96 1012.4
20260508095154 37 189 0.0 2.0 0.00 0.00 0.00 96 1012.2
20260508094650 37 259 0.0 2.0 0.00 0.00 0.00 96 1012.0
20260508094147 37 34 0.0 2.0 0.00 0.00 0.00 96 1012.1
20260508093645 37 145 0.0 2.0 0.00 0.00 0.00 95 1011.9
20260508093142 37 138 0.0 2.0 0.00 0.00 0.00 95 1012.0
20260508092639 37 193 0.0 2.0 0.00 0.00 0.00 94 1012.0
20260508092138 37 194 2.0 3.0 0.00 0.00 0.00 94 1012.0
20260508091634 38 241 1.0 3.0 0.00 0.00 0.00 94 1012.0
20260508091132 38 27 0.0 2.0 0.00 0.00 0.00 94 1012.0
20260508090630 38 14 1.0 2.0 0.00 0.00 0.00 94 1011.7
20260508090127 38 189 0.0 3.0 0.00 0.00 0.00 93 1011.6
20260508085622 39 164 0.0 2.0 0.00 0.00 0.00 93 1011.8
20260508085120 39 92 0.0 2.0 0.00 0.00 0.00 93 1012.0
20260508084616 39 230 0.0 2.0 0.00 0.00 0.00 93 1011.7
20260508084114 39 261 2.0 3.0 0.00 0.00 0.00 93 1011.9
20260508083611 39 273 1.0 2.0 0.00 0.00 0.00 93 1011.7
20260508083108 39 295 0.0 2.0 0.00 0.00 0.00 93 1011.6
20260508082603 39 280 0.0 1.0 0.00 0.00 0.00 93 1011.9
20260508082101 39 189 0.0 2.0 0.00 0.00 0.00 93 1011.6
20260508081558 39 135 2.0 3.0 0.00 0.00 0.00 93 1011.6
20260508081054 39 130 0.0 2.0 0.00 0.00 0.00 92 1011.8
20260508080552 39 166 0.0 3.0 0.00 0.00 0.00 92 1011.8
20260508080050 39 171 0.0 2.0 0.00 0.00 0.00 92 1011.7
20260508075546 39 184 1.0 2.0 0.00 0.00 0.00 92 1011.7
20260508075043 39 269 2.0 2.0 0.00 0.00 0.00 92 1011.8
20260508074541 39 213 0.0 2.0 0.00 0.00 0.00 92 1011.8
20260508074038 39 53 0.0 3.0 0.00 0.00 0.00 92 1011.6
20260508073535 39 68 2.0 4.0 0.00 0.00 0.00 92 1011.4
20260508073033 39 73 2.0 4.0 0.00 0.00 0.00 92 1011.5
20260508072528 39 240 1.0 3.0 0.00 0.00 0.00 92 1011.6
20260508072026 39 9 2.0 6.0 0.00 0.00 0.00 92 1011.5
20260508071523 39 159 0.0 4.0 0.00 0.00 0.00 93 1011.5
20260508071021 39 58 1.0 3.0 0.00 0.00 0.00 94 1011.6
20260508070518 39 21 2.0 3.0 0.00 0.00 0.00 94 1011.5
20260508070016 39 64 3.0 4.0 0.00 0.00 0.00 95 1011.6
20260508065514 38 19 1.0 3.0 0.00 0.00 0.00 95 1011.4
20260508065012 38 318 0.0 3.0 0.00 0.00 0.00 96 1011.4
20260508064509 38 35 2.0 4.0 0.00 0.00 0.00 97 1011.5
20260508064007 38 128 2.0 4.0 0.00 0.00 0.00 98 1011.6
20260508063504 37 221 0.0 4.0 0.00 0.00 0.00 98 1011.6
20260508063002 37 319 1.0 4.0 0.00 0.00 0.00 98 1011.3
20260508062459 36 237 2.0 2.0 0.00 0.00 0.00 98 1010.8
20260508061955 36 186 1.0 2.0 0.00 0.00 0.00 98 1010.7
20260508061454 36 151 1.0 3.0 0.00 0.00 0.00 97 1010.7
20260508060950 36 181 2.0 2.0 0.00 0.00 0.00 97 1010.7
20260508060447 35 202 0.0 1.0 0.00 0.00 0.00 97 1010.8
20260508055943 35 222 0.0 2.0 0.00 0.00 0.00 97 1010.6
20260508055440 35 194 0.0 2.0 0.00 0.00 0.00 97 1010.9
20260508054936 35 189 0.0 2.0 0.00 0.00 0.00 97 1010.9
20260508054434 35 206 0.0 2.0 0.00 0.00 0.00 97 1010.7
20260508053930 35 200 0.0 2.0 0.00 0.00 0.00 96 1010.9
20260508053427 36 162 0.0 2.0 0.00 0.00 0.00 96 1010.9
20260508052925 36 189 0.0 3.0 0.00 0.00 0.00 96 1010.9
20260508052422 36 217 2.0 3.0 0.00 0.00 0.00 96 1011.0
20260508051919 36 209 0.0 2.0 0.00 0.00 0.00 96 1011.0
20260508051415 37 199 0.0 3.0 0.00 0.00 0.00 96 1010.8
20260508050911 37 189 1.0 2.0 0.00 0.00 0.00 96 1011.2
20260508050408 36 218 0.0 1.0 0.00 0.00 0.00 96 1011.2
20260508045903 37 179 1.0 2.0 0.00 0.00 0.00 96 1011.2
20260508045402 36 166 0.0 2.0 0.00 0.00 0.00 95 1011.0
20260508044859 37 223 1.0 2.0 0.00 0.00 0.00 95 1011.0
20260508044355 37 245 0.0 2.0 0.00 0.00 0.00 95 1010.8
20260508043851 37 195 0.0 2.0 0.00 0.00 0.00 95 1010.8
20260508043349 37 167 2.0 2.0 0.00 0.00 0.00 95 1011.4
20260508042845 37 171 1.0 2.0 0.00 0.00 0.00 95 1010.9
20260508042343 37 167 1.0 2.0 0.00 0.00 0.00 94 1011.0
20260508041839 37 189 0.0 1.0 0.00 0.00 0.00 94 1011.3
20260508041336 38 189 0.0 2.0 0.00 0.00 0.00 94 1011.2
20260508040832 38 167 1.0 2.0 0.00 0.00 0.00 94 1010.9
20260508040330 38 169 2.0 2.0 0.00 0.00 0.00 94 1011.3
20260508035827 38 170 0.0 2.0 0.00 0.06 0.06 94 1011.2
20260508035324 38 157 1.0 2.0 0.00 0.06 0.06 93 1011.3
20260508034821 38 191 1.0 2.0 0.00 0.06 0.06 93 1011.0
20260508034318 38 199 0.0 1.0 0.00 0.06 0.06 93 1011.0
20260508033815 38 189 0.0 1.0 0.00 0.06 0.06 92 1010.9
20260508033313 39 186 1.0 2.0 0.00 0.06 0.06 92 1011.2
20260508032810 39 240 0.0 2.0 0.00 0.06 0.06 91 1011.2
20260508032308 39 188 2.0 2.0 0.00 0.06 0.06 91 1011.0
20260508031804 39 45 2.0 3.0 0.00 0.06 0.06 91 1011.2
20260508031301 39 206 1.0 2.0 0.00 0.06 0.06 90 1011.0
20260508030757 39 189 1.0 2.0 0.00 0.06 0.06 89 1011.0
20260508030255 40 280 0.0 2.0 0.00 0.06 0.06 89 1011.4
20260508025751 40 257 0.0 2.0 0.00 0.06 0.06 88 1011.4
20260508025248 40 194 1.0 2.0 0.00 0.06 0.06 88 1011.3
20260508024744 40 177 0.0 2.0 0.00 0.06 0.06 87 1011.3
20260508024241 40 183 0.0 2.0 0.00 0.06 0.06 87 1011.4
20260508023738 40 194 0.0 1.0 0.00 0.06 0.06 86 1011.5
20260508023236 41 189 1.0 2.0 0.00 0.06 0.06 86 1011.0
20260508022731 41 174 1.0 1.0 0.00 0.06 0.06 86 1011.2
20260508022228 41 163 1.0 2.0 0.00 0.06 0.06 86 1011.2
20260508021725 41 166 0.0 2.0 0.00 0.06 0.06 86 1011.2
20260508021220 41 164 1.0 2.0 0.00 0.06 0.06 86 1011.3
20260508020718 42 189 0.0 2.0 0.00 0.06 0.06 85 1011.2
20260508020215 42 146 0.0 2.0 0.00 0.06 0.06 84 1011.2
20260508015712 42 200 1.0 2.0 0.00 0.06 0.06 83 1011.0
20260508015209 42 163 0.0 1.0 0.00 0.06 0.06 82 1011.0
20260508014706 43 115 0.0 0.0 0.00 0.06 0.06 82 1011.0
20260508014202 43 171 1.0 2.0 0.00 0.06 0.06 81 1010.8
20260508013658 44 213 0.0 2.0 0.00 0.06 0.06 80 1010.7
20260508013155 44 9 0.0 1.0 0.00 0.06 0.06 80 1010.8
20260508012653 44 264 0.0 1.0 0.00 0.06 0.06 79 1010.5
20260508012149 44 213 0.0 2.0 0.00 0.06 0.06 77 1010.4
20260508011648 45 179 1.0 3.0 0.00 0.06 0.06 77 1010.6
20260508011145 45 266 0.0 2.0 0.00 0.06 0.06 76 1010.9
20260508010641 46 144 0.0 2.0 0.00 0.06 0.06 75 1010.5
20260508010139 46 189 0.0 1.0 0.00 0.06 0.06 73 1010.4
20260508005636 46 175 0.0 2.0 0.00 0.06 0.06 71 1010.5
20260508005133 47 155 0.0 1.0 0.00 0.06 0.06 70 1010.3
20260508004628 47 189 0.0 1.0 0.00 0.06 0.06 69 1010.2
20260508004125 48 150 0.0 2.0 0.00 0.06 0.06 67 1010.2
20260508003621 48 138 0.0 2.0 0.00 0.06 0.06 66 1010.1
20260508003119 49 151 2.0 2.0 0.00 0.06 0.06 65 1010.0
20260508002616 49 150 1.0 1.0 0.00 0.06 0.06 62 1009.7
20260508002113 50 166 0.0 1.0 0.00 0.06 0.06 61 1009.7
20260508001608 50 160 0.0 1.0 0.00 0.06 0.06 58 1010.0
20260508001105 51 106 0.0 2.0 0.00 0.06 0.06 58 1009.9
20260508000601 52 160 1.0 2.0 0.00 0.06 0.06 58 1009.8
20260508000058 53 175 0.0 3.0 0.00 0.06 0.06 54 1009.8
20260507235555 53 128 0.0 2.0 0.00 0.06 0.06 58 1009.6
20260507235052 53 147 2.0 5.0 0.00 0.06 0.06 50 1009.7
20260507234548 53 94 0.0 3.0 0.00 0.06 0.06 51 1009.7
20260507234045 54 229 0.0 2.0 0.00 0.06 0.06 52 1009.5
20260507233542 54 23 1.0 3.0 0.00 0.06 0.06 48 1009.5
20260507233041 55 132 1.0 3.0 0.00 0.06 0.06 50 1009.6
20260507232536 55 161 2.0 3.0 0.00 0.06 0.06 46 1009.3
20260507232034 55 166 0.0 4.0 0.00 0.06 0.06 47 1009.3
20260507231530 56 178 1.0 6.0 0.00 0.06 0.06 46 1009.2
20260507231028 56 48 2.0 4.0 0.00 0.06 0.06 48 1009.2
20260507230524 56 269 3.0 5.0 0.00 0.06 0.06 45 1009.4
20260507230021 57 31 6.0 9.0 0.00 0.06 0.06 44 1009.1
20260507225516 59 221 2.0 4.0 0.00 0.06 0.06 43 1009.0
20260507225012 58 25 4.0 14.0 0.00 0.06 0.06 42 1009.3
20260507224508 58 82 1.0 5.0 0.00 0.06 0.06 42 1009.1
20260507224005 58 86 3.0 10.0 0.00 0.06 0.06 42 1009.0
20260507223501 58 30 6.0 7.0 0.00 0.06 0.06 44 1009.1
20260507222958 58 222 0.0 7.0 0.00 0.06 0.06 44 1009.0
20260507222455 57 87 1.0 7.0 0.00 0.06 0.06 45 1009.1
20260507221951 58 158 5.0 7.0 0.00 0.06 0.06 43 1009.1
20260507221448 58 129 1.0 5.0 0.00 0.06 0.06 43 1009.0
20260507220945 58 84 3.0 11.0 0.00 0.06 0.06 42 1008.9
20260507220442 58 149 3.0 13.0 0.00 0.06 0.06 43 1009.0
20260507215939 59 289 6.0 7.0 0.00 0.06 0.06 42 1009.2
20260507215435 59 139 1.0 8.0 0.00 0.06 0.06 42 1009.0
20260507214933 59 75 7.0 15.0 0.00 0.06 0.06 41 1008.9
20260507214430 60 325 0.0 9.0 0.00 0.06 0.06 42 1009.2
20260507213926 59 148 2.0 4.0 0.00 0.06 0.06 42 1009.1
20260507213423 59 104 1.0 12.0 0.00 0.06 0.06 41 1008.9
20260507212920 59 349 3.0 13.0 0.00 0.06 0.06 40 1008.9
20260507212415 60 234 2.0 9.0 0.00 0.06 0.06 41 1008.9
20260507211912 60 246 4.0 4.0 0.00 0.06 0.06 42 1009.0
20260507211409 59 51 11.0 15.0 0.00 0.06 0.06 40 1008.9
20260507210906 60 0 4.0 12.0 0.00 0.06 0.06 40 1008.8
20260507210403 58 295 9.0 14.0 0.00 0.06 0.06 41 1008.7
20260507205859 58 151 5.0 11.0 0.00 0.06 0.06 40 1008.7
20260507205356 58 163 7.0 18.0 0.00 0.06 0.06 41 1008.7
20260507204852 57 98 3.0 7.0 0.00 0.06 0.06 43 1008.7
20260507204349 58 55 2.0 9.0 0.00 0.06 0.06 43 1008.8
20260507203847 59 111 4.0 10.0 0.00 0.06 0.06 41 1008.7
20260507203345 59 208 2.0 11.0 0.00 0.06 0.06 41 1008.6
20260507202841 61 271 2.0 9.0 0.00 0.06 0.06 40 1008.7
20260507202337 60 265 3.0 9.0 0.00 0.06 0.06 40 1008.8
20260507201833 61 121 1.0 8.0 0.00 0.06 0.06 43 1008.7
20260507201328 61 104 6.0 9.0 0.00 0.06 0.06 41 1008.6
20260507200825 57 357 2.0 7.0 0.00 0.06 0.06 42 1008.8
20260507200321 59 269 8.0 11.0 0.00 0.06 0.06 42 1008.8
20260507195817 60 313 1.0 5.0 0.00 0.06 0.06 41 1008.9
20260507195315 60 46 4.0 8.0 0.00 0.06 0.06 39 1009.1
20260507194812 60 107 4.0 11.0 0.00 0.06 0.06 39 1009.1
20260507194308 60 165 5.0 11.0 0.00 0.06 0.06 41 1009.0
20260507193805 59 82 1.0 10.0 0.00 0.06 0.06 44 1009.0
20260507193302 60 96 5.0 6.0 0.00 0.06 0.06 41 1009.0
20260507192757 61 318 5.0 11.0 0.00 0.06 0.06 41 1009.2
20260507192254 61 68 3.0 16.0 0.00 0.06 0.06 38 1009.3